Tracking 29892 objects as of 21-Nov-2024
HD Live streaming from Space Station
objects crossing your sky now

DMSP 5D-2 F13 DEB

Track DMSP 5D-2 F13 DEB now!
10-day predictions


NORAD ID: 40415
Int'l Code: 1995-015AC
Perigee: 809.2 km
Apogee: 817.4 km
Inclination: 98.8 °
Period: 101.0 minutes
Semi major axis: 7184 km
RCS: Unknown
Launch date: March 24, 1995
Source: United States (US)
Launch site: AIR FORCE WESTERN TEST RANGE (AFWTR)

Note: This is SATELLITE DEBRIS
Your satellite tracking list
Your tracking list is empty




NASA's NSSDC Master Catalog

Two Line Element Set (TLE):
1 40415U 95015AC  24325.49671276  .00004513  00000-0  19202-2 0  9991
2 40415  98.7614 341.5157 0005707 195.0471 165.0539 14.25687270506285
Source of the keplerian elements: AFSPC